[Iaude] MPEC U03: 2016 TB57 [a=1.12,e=0.13,i=0.3,H=26.0]

mpec at si.edu mpec at si.edu
Sun Oct 16 00:35:55 EDT 2016


M.P.E.C. 2016-U03                                Issued 2016 Oct. 16, 04:30 UT
 
     The Minor Planet Electronic Circulars contain information on unusual
         minor planets and routine data on comets.  They are published
    on behalf of Division F of the International Astronomical Union by the
          Minor Planet Center, Smithsonian Astrophysical Observatory,
                          Cambridge, MA 02138, U.S.A.

             Prepared using the Tamkin Foundation Computer Network

                              MPC at CFA.HARVARD.EDU
            URL http://www.minorplanetcenter.net/    ISSN 1523-6714


                                   2016 TB57
 
Observations:
     K16T57B* C2016 10 13.23300 01 57 41.61 +21 16 53.9          19.2 VqEU003G96
     K16T57B  C2016 10 13.23737 01 57 42.37 +21 17 09.2          19.8 VqEU003G96
     K16T57B  C2016 10 13.24178 01 57 43.12 +21 17 24.2          19.2 VqEU003G96
     K16T57B  C2016 10 13.24617 01 57 43.87 +21 17 39.7          19.3 VqEU003G96
     K16T57B  C2016 10 13.26621 01 57 47.15 +21 18 48.1          19.7 VqEU003G96
     K16T57B  C2016 10 13.26828 01 57 47.50 +21 18 54.8          19.9 VqEU003G96
     K16T57B  C2016 10 13.26992 01 57 47.77 +21 19 00.6          19.4 VqEU003G96
     K16T57B  C2016 10 13.27049 01 57 48.08 +21 19 04.5          19.7 VoEU003691
     K16T57B  C2016 10 13.27177 01 57 48.07 +21 19 06.7          19.3 VqEU003G96
     K16T57B  C2016 10 13.27277 01 57 48.43 +21 19 11.3          20.1 VoEU003691
     K16T57B  C2016 10 13.27508 01 57 48.83 +21 19 20.2          19.8 VoEU003691
     K16T57B  C2016 10 13.43318 01 58 14.30 +21 27 34.8          18.8 RoEU003291
     K16T57B  C2016 10 13.43542 01 58 14.69 +21 27 41.2          19.1 RoEU003291
     K16T57B  C2016 10 13.43769 01 58 15.11 +21 27 47.8          19.2 RoEU003291
     K16T57B  C2016 10 14.24644 02 02 17.98 +22 12 56.2          19.0 RoEU003926
     K16T57B  C2016 10 14.25326 02 02 19.30 +22 13 21.6          18.9 RoEU003926
     K16T57B  C2016 10 14.26034 02 02 20.60 +22 13 47.8          19.1 RoEU003926
     K16T57B  C2016 10 14.36290 02 02 39.08 +22 19 50.0          18.8 RoEU003926
     K16T57B  C2016 10 14.37161 02 02 40.65 +22 20 18.9          18.8 RoEU003926
     K16T57B  C2016 10 14.37827 02 02 41.86 +22 20 40.5          18.8 RoEU003926
     K16T57B  C2016 10 14.38831 02 02 43.79 +22 21 08.3          19.4 VqEU003I52
     K16T57B  C2016 10 14.39943 02 02 45.87 +22 21 44.8          19.4 VqEU003I52
     K16T57B  C2016 10 14.40157 02 02 46.27 +22 21 51.5          18.9 VqEU003I52
     K16T57B  C2016 10 14.40440 02 02 46.83 +22 22 00.8          19.6 VqEU003I52
     K16T57B KC2016 10 15.80787 02 10 35.50 +23 46 49.4          18.6 RqEU003104
     K16T57B KC2016 10 15.81079 02 10 36.34 +23 47 02.5          18.8 RqEU003104
     K16T57B KC2016 10 15.82361 02 10 40.17 +23 47 58.9          19.2 RqEU003104
     K16T57B KC2016 10 15.93582 02 11 12.33 +23 55 18.1                qEU003J95
     K16T57B KC2016 10 15.94309 02 11 14.34 +23 55 48.7          19.2 RqEU003J95
     K16T57B KC2016 10 15.95051 02 11 16.38 +23 56 19.8                qEU003J95
     K16T57B KC2016 10 15.95773 02 11 18.28 +23 56 50.3          19.1 RqEU003J95
     K16T57B KC2016 10 15.96574 02 11 18.26 +23 57 55.8          19.1 RqEU003204
     K16T57B KC2016 10 15.97343 02 11 20.18 +23 58 27.2                qEU003204
     K16T57B KC2016 10 15.98111 02 11 22.09 +23 58 58.0                qEU003204
 
Observer details:
104 San Marcello Pistoiese.  Observer P. Bacci.  Measurers P. Bacci, L. Tesi,
    G. Fagioli.  0.60-m f/4 reflector + CCD.
204 Schiaparelli Observatory.  Observer L. Buzzi.  0.60-m f/4.64 reflector
    + CCD.
291 LPL/Spacewatch II.  Observer R. S. McMillan.  1.8-m f/2.7 reflector + CCD.
691 Steward Observatory, Kitt Peak.  Observer R. S. McMillan.  0.9-m f/3
    reflector + CCD.
926 Tenagra II Observatory.  Observers M. Schwartz, P. R. Holvorcem.  Measurer
    M. Schwartz.  0.81-m f/7 Ritchey-Chretien + CCD.
G96 Mt. Lemmon Survey.  Observer R. G. Matheny.  Measurers E. J. Christensen,
    D. C. Fuls, A. R. Gibbs, A. D. Grauer, J. A. Johnson, R. A. Kowalski,
    S. M. Larson, G. J. Leonard, R. G. Matheny, R. L. Seaman, F. C. Shelly.
    1.5-m reflector + 10K CCD.
I52 Steward Observatory, Mt. Lemmon Station.  Observer A. R. Gibbs.  Measurers
    E. J. Christensen, D. C. Fuls, A. R. Gibbs, A. D. Grauer, J. A. Johnson,
    R. A. Kowalski, S. M. Larson, G. J. Leonard, R. G. Matheny, R. L. Seaman,
    F. C. Shelly.  1.0-m reflector + CCD.
J95 Great Shefford.  Observer P. Birtwhistle.  0.40-m f/6.0 Schmidt-Cassegrain
    + CCD.
 
Orbital elements:
2016 TB57                                                Earth MOID = 0.0021 AU
Epoch 2016 July 31.0 TT = JDT 2457600.5                 MPC
M 250.99093              (2000.0)            P               Q
n   0.83618351     Peri.  125.98136     +0.18008653     -0.98364392
a   1.1158393      Node   313.64340     +0.90084037     +0.16642402
e   0.1301558      Incl.    0.29080     +0.39503857     +0.06890352
P   1.18           H   26.0           G   0.15           U   6
Residuals in seconds of arc
161013 G96  0.2+  0.0     161013 291  0.1-  0.1+    161015 104  0.0   0.0
161013 G96  0.3+  0.1+    161013 291  0.0   0.2+    161015 104  0.5-  0.2+
161013 G96  0.3+  0.2-    161014 926  0.0   0.1+    161015 104  0.3-  0.2-
161013 G96  0.4+  0.2+    161014 926  0.4+  0.1+    161015 J95  0.5-  0.0
161013 G96  0.0   0.1+    161014 926  0.1-  0.0     161015 J95  0.0   0.0
161013 G96  0.2+  0.2-    161014 926  0.2+  0.4+    161015 J95  0.6+  0.1-
161013 G96  0.2+  0.0     161014 926  0.1+  0.2+    161015 J95  0.1+  0.2+
161013 691  0.3-  0.2+    161014 926  0.1-  0.2-    161015 204  0.2-  0.1+
161013 G96  0.2+  0.1-    161014 I52  0.3+  0.5-    161015 204  0.2-  0.2+
161013 691  0.5-  0.7-    161014 I52  0.1-  0.1-    161015 204  0.2-  0.1-
161013 691  0.1-  0.4+    161014 I52  0.2-  0.3-
161013 291  0.0   0.2+    161014 I52  0.0   0.1-

Ephemeris:
2016 TB57                a,e,i = 1.12, 0.13, 0                   q = 0.9706
Date    TT    R. A. (2000) Decl.     Delta      r     Elong.  Phase     V
2016 09 16    01 04 45.3 +09 32 40   0.08536 1.0831   154.6    23.4    21.9
...
2016 10 01    01 25 01.2 +14 03 35   0.05293 1.0518   162.5    16.6    20.6
...
2016 10 09    01 42 33.2 +18 06 24   0.03857 1.0360   164.0    15.4    19.9
...
2016 10 15    02 05 55.2 +22 58 28   0.02907 1.0248   161.9    17.6    19.3
2016 10 16    02 11 26.7 +24 02 08   0.02759 1.0230   161.1    18.4    19.2
2016 10 17    02 17 39.1 +25 11 19   0.02616 1.0212   160.2    19.3    19.1
...
2016 10 23    03 18 20.6 +34 26 27   0.01851 1.0109   149.5    29.9    18.7
...
2016 10 31    06 59 20.3 +44 32 41   0.01347 0.9984   114.4    64.9    18.9
...
2016 11 15    11 19 30.8 +15 09 41   0.02592 0.9799    68.5   110.1    22.2

A. U. Tomatic                (C) Copyright 2016 MPC           M.P.E.C. 2016-U03




More information about the Iaude mailing list